Theta_e
326 326 324 329 333 331 330 329 328 328 327 328 329 330 329 331 332 341 333 328 330 332 328 333 330 325 321 320 321 319 319 327 330 326 329 327 323 317 310 311 316 321 322 322 316 310 310 310 310
322 327 325 328 333 333 329 328 328 327 327 330 331 331 330 330 340 339 331 329 330 333 326 333 331 327 324 317 321 318 322 329 334 332 331 328 321 313 309 311 317 323 324 319 310 310 310 310 309
320 324 325 330 329 330 329 326 326 326 327 327 327 328 331 339 340 340 339 328 330 336 325 333 332 328 323 312 315 319 325 331 334 332 332 326 319 310 308 309 310 317 321 319 310 310 309 309 309
320 324 325 325 328 328 327 326 327 327 326 326 327 326 334 337 341 340 339 327 336 336 328 334 333 328 320 311 320 326 329 333 334 332 329 325 316 308 308 309 309 314 322 310 309 309 309 309 309
318 321 323 323 323 323 323 323 323 327 326 327 328 329 331 339 335 330 335 327 336 338 333 335 333 327 317 322 329 332 332 332 330 327 324 316 310 308 310 312 311 310 310 309 309 309 309 309 309
317 317 319 321 322 321 322 324 324 326 326 326 328 328 330 337 333 330 333 328 336 338 335 336 332 327 319 325 331 332 331 328 327 322 316 311 309 311 314 312 311 310 309 309 309 309 309 309 309
316 319 318 317 318 319 319 319 321 324 325 324 325 325 328 332 335 332 332 330 335 338 333 336 332 327 322 322 330 331 330 327 323 316 311 309 310 312 315 314 310 309 309 309 309 309 309 309 309
317 315 315 316 318 319 318 318 320 322 323 323 322 324 327 339 339 337 329 330 335 337 335 335 331 328 326 319 325 327 327 326 321 314 310 309 310 312 312 310 309 309 309 309 309 309 309 309 310
316 316 316 316 316 317 316 317 318 320 321 322 323 322 330 335 336 337 331 329 336 336 334 334 331 330 330 322 327 329 327 325 323 315 310 310 310 310 310 310 309 310 309 309 309 309 309 309 311
314 317 317 313 313 313 314 313 314 315 319 319 321 323 327 335 334 335 334 329 334 335 333 333 332 330 328 324 326 329 325 328 326 316 311 311 318 323 317 311 309 310 310 310 310 310 310 310 313
315 314 314 313 314 313 313 313 313 313 312 316 317 319 325 326 326 328 337 332 331 334 333 333 332 331 330 328 324 323 326 327 328 318 313 316 324 324 323 317 313 310 310 310 310 311 311 311 314
314 315 315 314 314 314 314 314 313 313 313 313 312 313 320 323 325 328 330 336 332 332 332 336 332 330 330 329 327 326 329 328 328 321 318 321 324 325 322 316 315 312 311 313 315 315 314 314 315
314 314 314 314 314 314 314 314 313 314 313 313 313 312 313 320 322 326 330 334 334 331 332 331 333 331 330 328 328 329 329 328 327 322 320 317 319 322 321 321 319 319 317 318 316 317 315 315 318
314 314 314 314 315 315 315 314 314 314 314 314 313 313 312 313 318 321 329 330 334 332 331 330 330 330 329 328 329 328 328 327 326 324 321 316 315 315 316 317 318 317 317 322 322 320 323 323 325
314 314 314 316 315 314 314 314 314 315 315 314 313 313 313 312 314 320 323 331 331 333 330 330 329 329 327 328 328 327 327 327 324 324 321 316 316 320 317 315 314 315 318 322 324 323 321 321 322
314 315 316 315 315 315 314 315 315 314 314 314 314 315 318 322 323 323 326 330 331 332 331 330 328 328 327 326 327 328 328 327 325 323 323 318 315 314 314 314 314 317 324 324 325 325 325 325 325
316 315 315 315 314 314 314 315 314 313 314 313 314 315 315 319 320 323 326 328 329 330 331 329 328 327 327 326 325 326 327 327 326 325 323 320 317 317 317 316 316 323 325 325 325 325 325 325 325
314 315 315 316 315 313 314 313 313 313 312 311 311 312 313 316 318 322 325 326 329 329 331 330 328 327 327 326 327 326 326 327 325 326 325 325 324 319 318 319 321 321 325 326 327 326 326 325 325
313 315 315 315 314 313 315 316 314 311 310 310 308 310 311 315 314 318 324 323 329 329 330 330 328 328 327 327 326 325 326 327 324 325 326 327 327 324 323 322 322 326 326 326 328 327 326 324 324
315 315 315 314 314 314 315 312 311 309 309 309 308 307 310 311 311 313 321 320 323 329 330 330 329 328 327 326 328 326 326 324 325 326 326 327 328 326 323 323 324 327 327 327 327 325 324 324 324
314 312 312 314 314 313 313 314 312 308 308 306 306 306 309 309 309 310 314 317 312 327 329 329 329 329 328 327 327 326 326 325 326 326 327 328 324 323 323 325 325 325 325 325 326 326 325 325 326
314 314 313 314 316 319 313 318 311 311 308 307 303 304 306 307 309 308 309 312 311 320 326 329 329 329 328 327 328 327 327 326 326 326 325 324 325 326 326 326 326 327 327 325 326 327 327 328 327
312 312 313 315 318 317 314 316 312 309 309 307 306 304 307 306 308 308 308 309 310 312 316 321 323 324 326 327 327 327 327 326 327 326 323 322 324 323 324 324 327 326 325 325 326 326 324 325 324
311 312 314 315 317 320 311 313 312 310 308 306 307 306 309 308 307 307 307 310 310 311 312 314 315 314 317 318 323 324 326 326 326 327 326 325 326 326 324 325 325 324 323 321 321 321 321 320 321
311 312 316 320 316 314 311 312 311 309 307 308 308 306 307 309 308 308 308 310 310 310 310 311 311 311 311 310 313 316 318 319 322 319 322 322 322 321 318 321 320 319 318 317 313 313 313 312 311
310 312 312 316 315 314 310 310 310 308 308 306 305 305 305 306 308 308 309 309 309 309 309 309 310 311 311 311 311 312 312 313 312 313 313 314 314 314 315 314 315 314 314 313 313 313 312 311 310
311 311 310 313 309 312 311 311 309 308 307 306 305 303 303 302 303 304 306 308 308 308 308 308 308 309 309 310 311 311 312 312 312 313 313 313 313 314 313 313 313 314 314 313 312 312 312 312 312
310 309 311 309 311 316 311 310 309 309 307 305 303 302 301 301 301 301 301 303 303 304 305 307 308 309 308 308 310 311 311 311 311 312 311 311 311 311 311 311 311 311 311 312 313 313 314 315 315
310 312 311 310 310 314 315 309 307 307 304 302 302 301 300 300 300 299 299 299 300 301 302 303 304 305 306 305 306 307 308 309 307 308 309 310 312 312 312 312 312 313 313 314 314 314 313 313 313
309 310 311 310 311 309 310 309 307 303 302 302 301 300 300 300 300 299 299 299 299 299 299 300 300 303 303 303 303 303 303 303 303 303 304 305 307 308 310 311 312 313 313 313 313 312 312 312 311
Wind_Speed
8 4 4 5 3 4 9 9 11 2 1 5 5 6 10 10 6 4 8 12 20 17 21 23 22 18 17 16 17 17 14 14 14 15 12 9 7 4 5 6 9 8 10 10 10 10 9 9 8
7 3 3 5 5 7 10 13 10 7 3 9 1 6 7 8 7 4 14 13 20 19 21 24 23 19 16 16 18 18 15 13 17 12 11 8 5 4 6 8 9 12 11 10 9 9 8 7 6
5 1 4 3 6 12 10 11 6 9 7 2 2 5 6 4 8 4 6 18 21 21 21 25 23 19 16 17 19 18 17 16 16 13 9 6 4 5 7 9 8 10 10 9 8 7 6 5 5
3 4 6 5 15 13 19 14 8 5 8 4 6 7 5 5 5 6 6 19 24 19 20 24 23 19 17 19 20 19 18 19 16 12 8 6 5 5 8 8 8 10 10 7 6 5 4 3 3
4 5 6 9 15 17 18 23 24 2 9 4 8 7 9 5 5 3 5 19 24 22 22 24 24 20 18 20 20 20 19 16 13 10 8 7 6 7 8 9 8 7 6 6 5 3 2 2 2
6 5 5 11 15 17 17 23 20 6 8 17 2 5 11 6 5 3 7 21 22 25 22 24 25 21 19 21 20 20 17 14 12 10 9 8 8 8 9 10 9 7 6 5 4 2 2 1 1
3 4 10 11 13 15 17 27 8 2 6 14 22 8 7 7 7 5 11 23 23 24 21 24 27 23 21 21 21 19 16 14 11 10 9 9 9 9 9 9 8 8 7 5 4 3 2 1 1
4 2 5 6 9 12 11 19 14 13 7 14 19 6 6 11 7 6 15 25 26 27 23 25 28 26 24 23 20 17 16 14 12 10 10 9 10 10 10 10 9 8 7 6 5 4 3 3 2
2 3 4 6 7 10 25 14 22 17 16 9 18 25 5 5 3 8 16 24 25 23 25 25 31 28 24 24 22 19 17 14 12 11 11 10 9 9 10 10 10 8 6 6 5 4 4 3 3
3 3 2 7 9 10 16 19 23 22 22 20 17 20 9 4 8 8 16 24 21 20 27 26 27 26 25 25 25 23 19 16 13 11 11 10 7 5 6 9 9 8 7 6 5 5 5 4 4
5 3 11 10 14 15 15 18 21 20 13 21 24 27 7 8 15 9 17 21 25 20 25 25 25 25 25 23 26 25 21 19 15 12 11 10 9 11 11 10 9 9 8 7 7 6 6 7 5
5 6 14 13 16 15 13 21 20 23 24 28 34 33 21 12 16 18 13 18 26 25 24 23 21 24 25 25 23 26 24 22 18 14 13 15 16 15 13 13 9 9 8 7 6 7 7 7 7
7 9 16 20 22 20 19 19 17 25 28 28 31 33 30 22 18 19 18 19 19 27 24 29 25 30 27 25 24 25 23 21 18 17 17 17 18 17 13 12 11 10 7 8 8 8 8 8 7
13 17 19 14 15 15 13 12 15 23 29 28 29 28 33 30 23 22 20 13 28 28 26 24 27 29 32 28 25 25 21 21 19 18 17 15 13 13 13 12 12 12 10 9 9 8 7 7 7
13 7 13 11 15 9 7 6 4 20 24 20 20 25 29 27 30 24 23 23 19 31 28 30 34 25 30 34 25 23 21 22 20 18 16 14 15 15 14 14 13 11 10 9 11 10 11 10 10
4 4 8 13 13 10 14 7 7 22 22 19 22 20 17 14 9 14 18 18 12 22 32 28 31 25 26 23 32 26 24 17 16 18 16 15 14 15 15 14 13 11 10 12 12 11 11 11 11
2 6 13 14 11 8 6 11 13 23 18 19 22 23 24 23 17 14 17 13 17 18 31 32 30 31 25 21 30 29 28 20 17 16 16 15 15 15 15 13 13 11 14 14 13 12 13 13 12
9 6 8 13 10 6 7 10 7 16 18 22 22 18 21 18 17 16 13 11 16 19 25 32 32 30 29 28 24 29 29 23 21 18 17 15 15 15 16 16 16 14 15 15 15 13 13 12 12
8 7 9 12 7 4 11 7 9 13 17 17 17 21 19 13 15 13 12 16 17 19 28 30 31 32 29 25 25 26 29 29 23 21 20 16 16 15 16 17 17 17 16 16 16 15 13 16 17
3 7 6 10 11 2 6 6 8 14 16 20 18 18 18 18 15 10 4 11 8 27 30 26 28 26 24 25 23 23 24 20 23 22 21 19 19 18 17 16 15 15 17 17 16 15 18 20 19
5 3 4 6 5 1 6 1 5 6 11 19 20 22 20 23 20 16 11 10 5 17 26 28 27 24 22 23 22 20 19 21 25 24 21 18 17 17 18 19 18 17 19 19 18 19 22 25 25
5 1 6 5 2 2 3 2 3 6 8 10 17 23 24 23 23 20 22 23 18 25 18 22 21 21 20 19 19 22 21 25 25 23 17 16 15 18 19 19 20 21 21 21 21 22 26 29 31
7 9 11 1 2 3 2 2 3 8 8 15 13 17 18 22 24 23 26 26 36 30 29 21 18 17 16 17 19 18 20 22 21 21 18 18 15 14 16 18 20 20 20 21 23 13 6 4 6
10 11 6 4 3 2 5 0 3 9 9 11 18 19 16 19 20 25 26 10 35 37 35 30 25 25 20 16 12 12 16 18 23 18 16 14 13 13 12 14 12 9 8 4 7 9 9 16 11
8 8 1 2 2 1 6 5 2 8 9 9 13 20 23 21 17 15 15 31 30 29 25 27 33 36 25 22 20 16 14 13 16 18 15 14 10 8 8 3 6 5 4 4 6 6 9 7 9
4 4 2 2 3 3 7 4 4 2 6 10 14 19 20 17 14 18 28 31 28 26 16 19 19 21 27 23 20 17 19 20 15 14 16 13 12 10 9 10 10 7 9 7 6 10 5 6 6
4 4 4 4 2 1 2 3 3 5 7 14 15 15 16 18 20 22 18 15 18 22 24 32 24 20 17 14 21 20 19 17 17 15 16 14 10 13 11 10 12 11 11 11 12 10 11 12 12
1 3 1 2 3 2 1 3 3 4 5 8 10 14 16 16 19 18 16 15 13 12 14 16 17 20 24 20 19 17 18 16 17 13 13 10 13 11 6 7 10 12 11 12 11 10 9 8 7
1 1 2 1 1 2 0 2 4 7 5 6 9 11 12 11 13 13 16 16 18 18 17 15 12 10 10 10 11 11 10 9 9 8 7 7 6 5 6 7 7 8 7 8 7 5 6 6 6
1 2 3 1 1 1 2 2 6 8 9 10 9 7 8 9 11 14 17 19 19 21 22 22 19 16 13 9 9 8 8 8 8 9 9 9 8 6 5 5 6 6 6 6 6 7 7 7 7
Wind_Direction
245 262 323 293 254 214 265 259 253 152 153 83 36 314 341 330 336 179 175 172 175 208 179 175 174 174 172 172 170 172 171 173 168 162 160 158 151 144 140 137 156 164 126 127 124 114 107 101 97
234 233 313 279 249 264 259 242 243 171 300 118 118 246 266 267 73 134 146 180 188 200 179 176 177 177 178 180 174 171 173 172 165 169 172 163 164 163 150 146 138 130 129 127 123 117 111 104 96
204 221 269 216 224 245 262 291 36 11 63 107 274 271 291 73 83 97 241 164 169 195 177 178 179 181 180 177 169 173 173 173 173 180 185 180 194 176 162 155 154 147 137 134 129 123 117 110 103
146 189 265 263 254 239 232 260 55 26 303 171 267 281 155 250 133 168 254 171 170 192 179 178 179 183 179 171 169 171 174 177 178 190 213 212 212 191 165 163 165 148 145 144 136 128 121 110 95
194 252 233 237 239 251 277 289 298 153 299 299 200 278 296 169 207 266 192 167 174 189 187 178 180 184 176 169 173 172 177 182 194 210 225 229 218 193 178 172 170 166 150 152 149 146 134 119 105
221 237 242 238 248 250 254 253 263 215 261 288 264 253 289 220 221 214 172 164 178 202 187 183 181 182 178 174 179 179 186 193 202 215 223 222 207 186 178 181 179 176 172 174 173 177 192 166 106
272 274 246 259 276 297 302 306 306 256 274 281 286 275 257 264 216 213 176 159 181 206 198 188 183 182 181 184 188 191 193 203 210 218 218 205 191 190 187 185 187 186 191 196 205 221 237 251 239
289 233 284 275 286 289 297 329 316 317 264 283 301 311 333 40 178 182 170 163 197 200 195 193 188 182 185 188 192 200 203 205 209 213 209 201 195 190 194 194 197 201 207 212 223 239 248 248 254
302 284 290 307 325 351 354 359 338 321 302 299 296 299 293 256 219 174 175 174 203 204 195 194 190 186 184 187 190 197 206 207 207 210 204 205 207 214 212 205 202 214 222 230 242 250 252 259 262
275 264 264 15 355 359 335 340 330 332 322 313 297 283 286 255 268 217 197 188 199 205 194 196 194 191 189 190 195 198 205 209 215 215 209 192 175 225 213 217 226 223 235 241 247 256 263 260 253
342 252 341 334 340 328 315 310 311 306 300 297 295 294 319 333 307 280 217 207 197 212 195 199 189 198 193 196 194 200 197 208 221 217 201 174 165 207 229 229 231 239 244 246 240 253 255 248 256
312 294 328 320 324 322 303 300 287 275 275 279 284 289 295 293 294 282 265 220 203 210 205 193 201 201 196 197 201 199 193 208 216 216 206 178 189 214 232 230 234 233 236 238 248 269 266 258 254
255 324 328 314 306 299 292 286 288 290 288 280 275 275 286 277 282 287 274 224 215 204 198 189 201 187 198 199 209 203 194 200 213 212 211 208 203 208 219 220 222 235 230 245 245 256 261 262 263
342 317 300 294 283 278 269 291 298 282 286 279 282 277 276 278 276 282 262 256 220 205 210 207 209 209 202 195 205 203 193 195 202 209 215 213 209 213 220 219 227 229 228 238 257 249 259 267 269
304 300 291 218 353 325 4 276 254 357 330 324 271 273 278 272 265 256 289 251 237 223 195 200 195 210 213 209 199 204 198 210 212 209 218 216 209 216 224 226 226 229 227 237 235 251 259 261 260
268 244 355 345 354 340 346 297 18 347 334 330 331 353 349 318 274 255 252 246 241 224 196 204 197 202 217 221 200 197 191 208 211 215 216 223 220 221 226 226 225 223 225 229 234 236 241 248 252
80 317 334 329 353 331 359 316 329 322 346 352 353 339 329 325 307 275 253 247 233 236 194 201 203 201 213 211 206 205 201 196 207 222 220 224 226 226 228 232 227 222 231 237 249 252 255 257 259
316 327 310 323 325 343 306 293 321 330 10 360 352 352 325 319 306 297 259 260 241 229 211 204 198 201 204 218 214 216 207 207 206 212 213 220 235 236 236 235 230 227 230 235 242 251 249 257 265
303 282 308 315 319 323 360 16 28 6 3 0 351 348 338 338 311 290 270 265 248 220 217 201 199 203 206 212 216 212 218 216 215 215 218 218 229 246 243 241 234 235 236 240 243 243 257 265 263
302 307 309 299 333 106 343 17 353 8 352 357 3 345 352 9 2 352 271 253 194 191 179 187 201 197 195 204 211 220 221 217 221 221 227 228 225 240 242 241 241 237 245 251 248 256 264 262 255
316 199 257 243 309 95 332 92 7 340 349 360 3 353 15 22 19 33 56 70 18 155 166 173 185 189 202 211 211 219 226 217 224 230 226 231 238 237 237 241 241 242 245 251 252 255 258 258 255
311 125 321 319 316 323 28 295 24 356 341 355 356 5 10 19 37 49 63 65 64 90 130 181 179 181 189 204 208 221 223 222 223 234 230 229 230 233 237 243 244 243 248 254 255 265 269 266 261
260 328 296 92 285 236 357 289 10 5 345 331 337 349 2 29 38 43 55 63 70 70 82 100 117 135 158 190 211 218 218 222 222 217 212 225 229 239 245 244 245 249 256 259 257 240 334 33 330
278 281 240 219 220 141 284 89 28 8 338 325 334 344 0 25 38 41 62 40 66 70 67 82 77 71 76 79 122 163 193 180 205 205 201 212 226 253 256 243 225 226 231 252 257 272 290 313 305
356 320 339 265 339 4 344 52 62 355 341 337 359 8 17 27 23 32 29 58 56 53 58 67 70 59 58 52 73 81 89 92 115 105 135 138 134 150 81 135 72 79 345 335 339 355 351 335 1
310 327 81 306 341 319 45 12 343 59 100 70 58 30 24 21 29 38 42 55 59 62 56 62 71 65 47 47 55 63 67 73 69 71 62 83 81 67 45 15 8 1 8 3 344 19 343 20 9
351 57 355 300 33 337 105 107 164 41 52 56 49 41 31 26 26 35 30 36 55 69 71 71 75 71 67 49 46 49 55 51 50 48 50 43 51 55 35 7 358 341 336 321 317 308 280 280 281
208 332 275 281 347 332 137 102 110 86 41 58 46 51 36 31 40 41 47 48 49 44 41 51 53 71 75 68 63 61 58 51 54 38 49 20 44 45 345 320 300 286 285 288 289 287 286 274 270
315 65 309 244 144 291 224 142 97 106 82 87 78 61 53 43 50 51 57 56 58 56 53 59 65 66 59 30 32 32 27 30 20 8 13 340 353 319 303 297 289 279 273 273 279 280 274 263 253
314 344 281 275 239 163 266 196 124 125 124 120 104 86 79 69 59 53 51 53 54 53 51 51 53 50 55 50 50 40 20 24 21 16 7 357 2 353 343 325 312 300 288 277 271 262 257 255 256